Find Starlink 32609

NORAD ID: 61929 Int'l Des: 2024-207 Owner: SPXS Country: US Constellation: starlink operational
LEOCIRCULAR

現在のビュー

3D地球を読み込み中...

About Starlink 32609

Starlink 32609 (NORAD 61929) is a starlink constellation satellite (v2 mini) launched Nov 11, 2024 by SPXS of US. It operates in LEO, CIRCULAR orbit with a mass of 730.00 kg.

次回通過

Passes for default location (London). Set your location on the main map for personalized predictions.

高度履歴

Loading altitude history...

軌道要素

1 61929U 24207T 26263.93635660 .00011216 00000-0 41668-3 0 9998
2 61929 43.0003 258.9931 0001595 275.6371 84.4299 15.27564801104580
Epoch: Sep 20, 2026 • Age: 11 hours

現在のステータス

高度 493.6 km
遠地点 / 近地点 N/A
速度 7.62 km/s
衛星直下点 -38.79°S, 59.7°E
打ち上げ日 Nov 11, 2024
運用期間 1.8 years
タイプ internet

技術仕様

分類 Payload
質量 730.00 kg
乾燥質量 700.00 kg
長さ 0.30 m
スパン 29.00 m
形状 ? Box + pan
製造者 SPXS
バスタイプ Starlink V2M
フェーズステータス In Orbit
所有者/国 SPXS/US

Most Searched